******** Week 353 almanac for PRN-1 ******** ID: 1 Health: 0 Eccentricity: 0.00138092041 Time of Applicability(s): 589824 Orbital Inclination(rad): 0.9583988389 Rate of Right Ascen(r/s): -8.000333246e-09 SQRT(A) (m 1/2): 5153.584473 Right Ascen at Week(rad): -2.272104181 Argument of Perigee(rad): -0.0120156835 Mean Anom(rad): 0.6687291127 Af0(s): 0.0002713227539 Af1(s/s): -3.637979e-12 week: 353 ******** Week 353 almanac for PRN-2 ******** ID: 2 Health: 0 Eccentricity: 0.01698064804 Time of Applicability(s): 589824 Orbital Inclination(rad): 0.9639355508 Rate of Right Ascen(r/s): -7.806039438e-09 SQRT(A) (m 1/2): 5153.566406 Right Ascen at Week(rad): -2.434838346 Argument of Perigee(rad): -0.8477509624 Mean Anom(rad): 2.061493412 Af0(s): 1.507348633e-05 Af1(s/s): 7.275958e-12 week: 353 ******** Week 353 almanac for PRN-3 ******** ID: 3 Health: 0 Eccentricity: 0.006351470947 Time of Applicability(s): 589824 Orbital Inclination(rad): 0.9925179272 Rate of Right Ascen(r/s): -7.931758961e-09 SQRT(A) (m 1/2): 5153.604004 Right Ascen at Week(rad): -1.286009573 Argument of Perigee(rad): 1.210913424 Mean Anom(rad): -1.56475478 Af0(s): 0.0004710464477 Af1(s/s): -1.091394e-11 week: 353 ******** Week 353 almanac for PRN-4 ******** ID: 4 Health: 0 Eccentricity: 0.003734111786 Time of Applicability(s): 589824 Orbital Inclination(rad): 0.9705808035 Rate of Right Ascen(r/s): -7.577458489e-09 SQRT(A) (m 1/2): 5153.710938 Right Ascen at Week(rad): -0.2147471987 Argument of Perigee(rad): -2.910282134 Mean Anom(rad): 1.489858992 Af0(s): 3.090064697e-05 Af1(s/s): 3.637979e-12 week: 353 ******** Week 353 almanac for PRN-5 ******** ID: 5 Health: 0 Eccentricity: 0.005375862122 Time of Applicability(s): 589824 Orbital Inclination(rad): 0.9790955953 Rate of Right Ascen(r/s): -8.080336578e-09 SQRT(A) (m 1/2): 5153.630859 Right Ascen at Week(rad): -1.345210521 Argument of Perigee(rad): 1.426121266 Mean Anom(rad): 2.097611994 Af0(s): -0.0001793744873 Af1(s/s): 0 week: 353 ******** Week 353 almanac for PRN-6 ******** ID: 6 Health: 0 Eccentricity: 0.00386095047 Time of Applicability(s): 589824 Orbital Inclination(rad): 0.9873707026 Rate of Right Ascen(r/s): -7.703178011e-09 SQRT(A) (m 1/2): 5153.566895 Right Ascen at Week(rad): -2.322819174 Argument of Perigee(rad): -0.6225183159 Mean Anom(rad): -0.1843331084 Af0(s): -0.0004770758423 Af1(s/s): -3.637979e-12 week: 353 ******** Week 353 almanac for PRN-7 ******** ID: 7 Health: 0 Eccentricity: 0.02018928528 Time of Applicability(s): 589824 Orbital Inclination(rad): 0.9508667535 Rate of Right Ascen(r/s): -7.760323248e-09 SQRT(A) (m 1/2): 5153.583984 Right Ascen at Week(rad): 0.7937863721 Argument of Perigee(rad): -2.004747733 Mean Anom(rad): -1.093048572 Af0(s): -0.0001077754272 Af1(s/s): -3.637979e-12 week: 353 ******** Week 353 almanac for PRN-8 ******** ID: 8 Health: 0 Eccentricity: 0.0114235878 Time of Applicability(s): 589824 Orbital Inclination(rad): 0.9444132484 Rate of Right Ascen(r/s): -7.748894201e-09 SQRT(A) (m 1/2): 5153.618652 Right Ascen at Week(rad): 2.842369778 Argument of Perigee(rad): 0.5014109821 Mean Anom(rad): 1.758064073 Af0(s): 0.0003979400391 Af1(s/s): -3.637979e-12 week: 353 ******** Week 353 almanac for PRN-9 ******** ID: 9 Health: 0 Eccentricity: 0.003367900848 Time of Applicability(s): 589824 Orbital Inclination(rad): 0.9646845648 Rate of Right Ascen(r/s): -7.668890868e-09 SQRT(A) (m 1/2): 5153.537109 Right Ascen at Week(rad): -0.2786527035 Argument of Perigee(rad): 2.0709044 Mean Anom(rad): 2.334188084 Af0(s): 0.0006089688477 Af1(s/s): 0 week: 353 ******** Week 353 almanac for PRN-10 ******** ID: 10 Health: 0 Eccentricity: 0.01097393036 Time of Applicability(s): 589824 Orbital Inclination(rad): 0.9920685187 Rate of Right Ascen(r/s): -7.920329913e-09 SQRT(A) (m 1/2): 5153.603516 Right Ascen at Week(rad): -1.288519519 Argument of Perigee(rad): -2.266235281 Mean Anom(rad): -2.532390685 Af0(s): -0.0004604950073 Af1(s/s): -3.637979e-12 week: 353 ******** Week 353 almanac for PRN-11 ******** ID: 11 Health: 0 Eccentricity: 0.002234458923 Time of Applicability(s): 589824 Orbital Inclination(rad): 0.9641992037 Rate of Right Ascen(r/s): -7.931758961e-09 SQRT(A) (m 1/2): 5153.730957 Right Ascen at Week(rad): -2.30305494 Argument of Perigee(rad): -2.249118812 Mean Anom(rad): 0.7789300528 Af0(s): -0.0003723151123 Af1(s/s): 1.455192e-11 week: 353 ******** Week 353 almanac for PRN-12 ******** ID: 12 Health: 0 Eccentricity: 0.009076595306 Time of Applicability(s): 589824 Orbital Inclination(rad): 0.9588003104 Rate of Right Ascen(r/s): -7.874613723e-09 SQRT(A) (m 1/2): 5153.500488 Right Ascen at Week(rad): 1.911752395 Argument of Perigee(rad): 1.53506611 Mean Anom(rad): -1.711210248 Af0(s): -0.0004793368652 Af1(s/s): 0 week: 353 ******** Week 353 almanac for PRN-13 ******** ID: 13 Health: 0 Eccentricity: 0.009899616241 Time of Applicability(s): 589824 Orbital Inclination(rad): 0.9762912866 Rate of Right Ascen(r/s): -7.497455156e-09 SQRT(A) (m 1/2): 5153.634766 Right Ascen at Week(rad): -0.1042286766 Argument of Perigee(rad): 1.002001794 Mean Anom(rad): 1.484075854 Af0(s): 0.0005449065308 Af1(s/s): 0 week: 353 ******** Week 353 almanac for PRN-14 ******** ID: 14 Health: 0 Eccentricity: 0.006509304047 Time of Applicability(s): 589824 Orbital Inclination(rad): 0.9421182693 Rate of Right Ascen(r/s): -8.103194673e-09 SQRT(A) (m 1/2): 5153.578613 Right Ascen at Week(rad): 1.857802785 Argument of Perigee(rad): -2.763458526 Mean Anom(rad): -1.906775196 Af0(s): 0.000576560852 Af1(s/s): 3.637979e-12 week: 353 ******** Week 353 almanac for PRN-15 ******** ID: 15 Health: 0 Eccentricity: 0.01659488678 Time of Applicability(s): 589824 Orbital Inclination(rad): 0.9424358513 Rate of Right Ascen(r/s): -7.954617056e-09 SQRT(A) (m 1/2): 5153.630371 Right Ascen at Week(rad): -0.4215675816 Argument of Perigee(rad): 1.494219377 Mean Anom(rad): 0.7487856076 Af0(s): 0.0002984550293 Af1(s/s): 3.637979e-12 week: 353 ******** Week 353 almanac for PRN-16 ******** ID: 16 Health: 0 Eccentricity: 0.01504945755 Time of Applicability(s): 589824 Orbital Inclination(rad): 0.9579614147 Rate of Right Ascen(r/s): -7.886042771e-09 SQRT(A) (m 1/2): 5153.5625 Right Ascen at Week(rad): 1.92881119 Argument of Perigee(rad): 0.9221100819 Mean Anom(rad): 2.756372853 Af0(s): 0.000149981189 Af1(s/s): 7.275958e-12 week: 353 ******** Week 353 almanac for PRN-17 ******** ID: 17 Health: 0 Eccentricity: 0.01281881332 Time of Applicability(s): 589824 Orbital Inclination(rad): 0.9601904805 Rate of Right Ascen(r/s): -7.577458489e-09 SQRT(A) (m 1/2): 5153.521973 Right Ascen at Week(rad): 2.946329559 Argument of Perigee(rad): -1.134492643 Mean Anom(rad): 1.646975926 Af0(s): -2.788594971e-05 Af1(s/s): -1.091394e-11 week: 353 ******** Week 353 almanac for PRN-18 ******** ID: 18 Health: 0 Eccentricity: 0.005690574646 Time of Applicability(s): 589824 Orbital Inclination(rad): 0.9723245082 Rate of Right Ascen(r/s): -7.840326581e-09 SQRT(A) (m 1/2): 5153.602051 Right Ascen at Week(rad): -2.327233863 Argument of Perigee(rad): -2.857340697 Mean Anom(rad): -0.3341666294 Af0(s): -0.0003542269287 Af1(s/s): 1.091394e-11 week: 353 ******** Week 353 almanac for PRN-19 ******** ID: 19 Health: 0 Eccentricity: 0.01097631454 Time of Applicability(s): 589824 Orbital Inclination(rad): 0.9593995216 Rate of Right Ascen(r/s): -7.554600394e-09 SQRT(A) (m 1/2): 5153.664062 Right Ascen at Week(rad): 2.990227026 Argument of Perigee(rad): 2.916316566 Mean Anom(rad): -2.774061569 Af0(s): 0.0005418918335 Af1(s/s): 3.637979e-12 week: 353 ******** Week 353 almanac for PRN-21 ******** ID: 21 Health: 0 Eccentricity: 0.0005583763123 Time of Applicability(s): 589824 Orbital Inclination(rad): 0.9619521615 Rate of Right Ascen(r/s): -8.228914196e-09 SQRT(A) (m 1/2): 5153.688477 Right Ascen at Week(rad): -1.278432547 Argument of Perigee(rad): -0.4777114283 Mean Anom(rad): -1.867581912 Af0(s): 0.0003022234009 Af1(s/s): 7.275958e-12 week: 353 ******** Week 353 almanac for PRN-22 ******** ID: 22 Health: 0 Eccentricity: 0.01221990585 Time of Applicability(s): 589824 Orbital Inclination(rad): 0.9573981561 Rate of Right Ascen(r/s): -7.920329913e-09 SQRT(A) (m 1/2): 5153.56543 Right Ascen at Week(rad): 1.932151418 Argument of Perigee(rad): -0.9970826439 Mean Anom(rad): 2.300109817 Af0(s): -4.522045898e-05 Af1(s/s): 3.637979e-12 week: 353 ******** Week 353 almanac for PRN-23 ******** ID: 23 Health: 0 Eccentricity: 0.006000041962 Time of Applicability(s): 589824 Orbital Inclination(rad): 0.9870710969 Rate of Right Ascen(r/s): -7.988904198e-09 SQRT(A) (m 1/2): 5153.651367 Right Ascen at Week(rad): -1.320415534 Argument of Perigee(rad): -2.747901129 Mean Anom(rad): -1.433268358 Af0(s): 0.0004748148193 Af1(s/s): 3.637979e-12 week: 353 ******** Week 353 almanac for PRN-24 ******** ID: 24 Health: 0 Eccentricity: 0.01782226562 Time of Applicability(s): 589824 Orbital Inclination(rad): 0.9349457107 Rate of Right Ascen(r/s): -7.886042771e-09 SQRT(A) (m 1/2): 5153.59668 Right Ascen at Week(rad): 0.6860837684 Argument of Perigee(rad): 1.129837895 Mean Anom(rad): -0.1128262344 Af0(s): -0.0001258636108 Af1(s/s): 1.455192e-11 week: 353 ******** Week 353 almanac for PRN-25 ******** ID: 25 Health: 0 Eccentricity: 0.01294136047 Time of Applicability(s): 589824 Orbital Inclination(rad): 0.9470917227 Rate of Right Ascen(r/s): -8.023191341e-09 SQRT(A) (m 1/2): 5153.675781 Right Ascen at Week(rad): 1.818385171 Argument of Perigee(rad): 1.150454507 Mean Anom(rad): -1.862052316 Af0(s): 0.000354980603 Af1(s/s): -3.637979e-12 week: 353 ******** Week 353 almanac for PRN-26 ******** ID: 26 Health: 0 Eccentricity: 0.01097106934 Time of Applicability(s): 589824 Orbital Inclination(rad): 0.9278390654 Rate of Right Ascen(r/s): -8.251772291e-09 SQRT(A) (m 1/2): 5153.62207 Right Ascen at Week(rad): 1.744651104 Argument of Perigee(rad): 0.7018557574 Mean Anom(rad): -2.692479332 Af0(s): -0.0002472051758 Af1(s/s): -7.275958e-12 week: 353 ******** Week 353 almanac for PRN-27 ******** ID: 27 Health: 0 Eccentricity: 0.01417303085 Time of Applicability(s): 589824 Orbital Inclination(rad): 0.9535392357 Rate of Right Ascen(r/s): -7.634603726e-09 SQRT(A) (m 1/2): 5153.617188 Right Ascen at Week(rad): 2.873996522 Argument of Perigee(rad): 0.8661684691 Mean Anom(rad): 1.848316896 Af0(s): -1.658083496e-05 Af1(s/s): -7.275958e-12 week: 353 ******** Week 353 almanac for PRN-28 ******** ID: 28 Health: 0 Eccentricity: 0.0004005432129 Time of Applicability(s): 589824 Orbital Inclination(rad): 0.9618443035 Rate of Right Ascen(r/s): -7.680319916e-09 SQRT(A) (m 1/2): 5153.712891 Right Ascen at Week(rad): 0.7675510313 Argument of Perigee(rad): 0.3600506826 Mean Anom(rad): -1.083799746 Af0(s): -0.0004815978882 Af1(s/s): 3.637979e-12 week: 353 ******** Week 353 almanac for PRN-29 ******** ID: 29 Health: 0 Eccentricity: 0.003252506256 Time of Applicability(s): 589824 Orbital Inclination(rad): 0.9628330021 Rate of Right Ascen(r/s): -7.577458489e-09 SQRT(A) (m 1/2): 5153.739746 Right Ascen at Week(rad): 2.962913105 Argument of Perigee(rad): 2.752401206 Mean Anom(rad): 1.722361569 Af0(s): -0.0003090064697 Af1(s/s): 7.275958e-12 week: 353 ******** Week 353 almanac for PRN-30 ******** ID: 30 Health: 0 Eccentricity: 0.007883071899 Time of Applicability(s): 589824 Orbital Inclination(rad): 0.9361261569 Rate of Right Ascen(r/s): -7.943188008e-09 SQRT(A) (m 1/2): 5153.723145 Right Ascen at Week(rad): 0.7854243792 Argument of Perigee(rad): -2.347497314 Mean Anom(rad): -1.201069881 Af0(s): 7.159906006e-05 Af1(s/s): 1.091394e-11 week: 353 ******** Week 353 almanac for PRN-31 ******** ID: 31 Health: 0 Eccentricity: 0.01086473465 Time of Applicability(s): 589824 Orbital Inclination(rad): 0.9546178159 Rate of Right Ascen(r/s): -7.748894201e-09 SQRT(A) (m 1/2): 5153.70752 Right Ascen at Week(rad): 0.8178184882 Argument of Perigee(rad): 0.9314079679 Mean Anom(rad): -2.160062539 Af0(s): -0.000135661377 Af1(s/s): 3.637979e-12 week: 353 ******** Week 353 almanac for PRN-32 ******** ID: 32 Health: 0 Eccentricity: 0.009193897247 Time of Applicability(s): 589824 Orbital Inclination(rad): 0.9677585185 Rate of Right Ascen(r/s): -7.611745631e-09 SQRT(A) (m 1/2): 5153.674316 Right Ascen at Week(rad): -0.2618081264 Argument of Perigee(rad): -2.026526066 Mean Anom(rad): 2.458269003 Af0(s): -0.0001251099365 Af1(s/s): 1.818989e-11 week: 353